OpenBCM V1.13 (Linux)

Packet Radio Mailbox

DB0FHN

[JN59NK Nuernberg]

 Login: GUEST





  
LU1HVK > KEP      05.09.19 07:34l 243 Lines 12025 Bytes #999 (0) @ WW
BID : 31052_LU1HVK
Read: DF7EAV DJ6UX GUEST
Subj: TLE 05 09
Path: DB0FHN<DB0BLO<DB0ERF<DB0RES<DB0OVN<DB0GOS<ON0AR<VK6HGR<GB7CIP<GB7YEW<
      N3HYM<LU3DVN<LU9HGS<LU1HVK
Sent: 190905/0522Z 31052@LU1HVK.2594.CBA.ARG.SA LinBPQ6.0.18

                         _    _   _ _ _   ___     ___  __
                        | |  | | | / | | | \ \   / / |/ /
                        | |  | | | | | |_| |\ \ / /| ' /
                        | |__| |_| | |  _  | \ V / | . \
                        |_____\___/|_|_| |_|  \_/  |_|\_\

     BBS/NODO - CORDOBA (LEONES-FF87UH) - LU1HVK-4 NODO - LU1HVK-3 APRS

+----------------------------------------------------------------------------+
OSCAR 7
1  7530U 74089B   19247.91142109 -.00000032 +00000-0 +81741-4 0  9994
2  7530 101.7519 214.7933 0011911 194.6870 227.0032 12.53639566050083
OSCAR 11 (UoSAT 2)
1 14781U 84021B   19247.89556856 +.00000048 +00000-0 +11949-4 0  9991
2 14781 097.6079 268.9004 0009910 067.3199 292.9062 14.83103800889355
OSCAR 19 (LUSAT)
1 20442U 90005G   19247.80551778 +.00000004 +00000-0 +17766-4 0  9995
2 20442 098.6525 189.6917 0010638 280.9449 079.0538 14.32931683547507
EYESAT A
1 22825U 93061C   19247.93244255 -.00000010 +00000-0 +13928-4 0  9994
2 22825 098.9089 238.3750 0009284 126.7104 233.4931 14.30065532352864
ITAMSAT
1 22826U 93061D   19247.91588275 -.00000019 +00000-0 +10622-4 0  9993
2 22826 098.9031 238.3397 0009895 116.6461 243.5735 14.30399351353089
RADIO ROSTO
1 23439U 94085A   19247.91843764 -.00000054 +00000-0 -34385-3 0  9999
2 23439 064.8201 349.6218 0145684 098.0629 263.6851 11.27568281016716
JAS 2
1 24278U 96046B   19247.93148224 -.00000038 +00000-0 -34378-5 0  9997
2 24278 098.5490 030.7600 0350959 037.3078 325.1890 13.53093097138139
TECHSAT 1B
1 25397U 98043D   19247.84208972 -.00000006  00000-0  16533-4 0  9992
2 25397  98.6920 187.0536 0001796 131.6759 228.4573 14.23669835 98990
ISS (ZARYA)
1 25544U 98067A   19248.00660880  .00002294  00000-0  47493-4 0  9990
2 25544  51.6465 325.3424 0007943   6.1992 357.9734 15.50434280187648
PCSAT
1 26931U 01043C   19247.87441933 -.00000038 +00000-0 +17344-4 0  9996
2 26931 067.0516 161.9310 0007470 272.6443 087.3803 14.30551066936081
SAUDISAT 1C
1 27607U 02058C   19247.89393640 -.00000033  00000-0  16307-4 0  9990
2 27607  64.5552 170.5018 0077817 241.4425 117.8830 14.75568658898575
CUTE-1
1 27844U 03031E   19247.88662564  .00000032  00000-0  34103-4 0  9990
2 27844  98.6850 254.9329 0010204 158.5142 201.6466 14.22192493839406
CUBESAT XI 4
1 27848U 03031J   19247.83067595  .00000015  00000-0  26481-4 0  9993
2 27848  98.6926 255.3943 0009873 169.9429 190.1948 14.21785893839245
MOZHAYETS 4
1 27939U 03042A   19247.88351447 +.00000025 +00000-0 +13080-4 0  9995
2 27939 098.0526 022.2226 0013241 174.8666 185.2682 14.66799536852000
CUBESAT XI 5
1 28895U 05043F   19247.85128224  .00000121  00000-0  32038-4 0  9993
2 28895  97.9702  27.9512 0018174 104.2877 256.0346 14.63687071738922
CUTE-1.7+APD II
1 32785U 08021C   19247.80825873 +.00000183 +00000-0 +25344-4 0  9994
2 32785 097.5532 243.8512 0013339 010.9593 349.1913 14.88338383615235
DELFI C3
1 32789U 08021G   19247.90145498 +.00000874 +00000-0 +62245-4 0  9995
2 32789 097.4579 295.1843 0011354 211.0875 148.9682 15.07081835618643
SEEDS
1 32791U 08021J   19247.56078836 +.00000371 +00000-0 +42979-4 0  9995
2 32791 097.5300 249.6637 0012908 345.4841 014.6005 14.90860409615632
YUBELEINY
1 32953U 08025A   19247.87487726 +.00000020 +00000-0 +75656-4 0  9994
2 32953 082.4997 096.1467 0019219 321.4388 038.5316 12.43091119512024
PRISM (HITOMI)
1 33493U 09002B   19247.74949379 +.00000856 +00000-0 +80411-4 0  9995
2 33493 098.1205 171.6630 0013504 287.8146 072.1601 14.96720259576811
KKS-1 (KISEKI)
1 33499U 09002H   19247.79941169 +.00000057 +00000-0 +16386-4 0  9998
2 33499 098.3459 088.9820 0008409 325.1493 034.9163 14.75458975570318
SWISSCUBE
1 35932U 09051B   19247.92352819 +.00000089 +00000-0 +31081-4 0  9993
2 35932 098.5958 056.2203 0006477 288.5093 071.5400 14.56305268528120
BEESAT
1 35933U 09051C   19247.92178648 +.00000080 +00000-0 +28971-4 0  9995
2 35933 098.5979 058.0108 0004801 305.9878 054.0874 14.56391875528199
ITUPSAT 1
1 35935U 09051E   19247.74965762 +.00000058 +00000-0 +24444-4 0  9994
2 35935 098.6089 058.0656 0007088 301.4523 058.5980 14.55548888527968
XIWANG-1 (HOPE-1)
1 36122U 09072B   19247.71651768 -.00000021 +00000-0 +55197-4 0  9991
2 36122 100.0747 246.4352 0007337 162.3901 197.7457 13.16351267467140
TISAT 1
1 36799U 10035E   19247.92613386 +.00000373 +00000-0 +43740-4 0  9999
2 36799 098.1658 042.7196 0012212 183.3421 176.7717 14.91145845496223
JUGNU
1 37839U 11058B   19247.30812903 +.00000325 +00000-0 +31451-4 0  9992
2 37839 019.9600 224.1013 0019149 102.7200 036.0342 14.12657438408131
SRMSAT
1 37841U 11058D   19247.46881896 +.00000310 +00000-0 +25412-4 0  9993
2 37841 019.9717 281.5142 0011815 332.2461 167.1275 14.10637822407597
M-CUBED/EXP-1 PRIME
1 37855U 11061F   19247.75609500  .00000732  00000-0  44604-4 0  9996
2 37855 101.7105 183.4225 0173054 205.3234 153.9421 15.05559660428527
HORYU 2
1 38340U 12025D   19247.88874614 +.00000114 +00000-0 +24633-4 0  9995
2 38340 098.3232 288.8011 0010507 230.6291 129.3988 14.75743684382283
STRAND 1
1 39090U 13009E   19247.87489458 +.00000005 +00000-0 +16902-4 0  9997
2 39090 098.4821 092.4978 0010249 060.1358 300.0845 14.35095345341583
SOMP
1 39134U 13015E   19247.90683902 +.00001002 +00000-0 +54729-4 0  9994
2 39134 064.8630 127.0131 0035349 290.1541 069.5785 15.20289475352104
BEESAT 3
1 39135U 13015F   19247.90222047 +.00000806 +00000-0 +49452-4 0  9992
2 39135 064.8692 146.4335 0031733 302.8632 056.9441 15.17576273351726
BEESAT 2
1 39136U 13015G   19247.90304496 +.00000908 +00000-0 +55490-4 0  9994
2 39136 064.8688 150.4764 0023598 304.8165 055.0740 15.16992589351640
CUBEBUG 1
1 39153U 13018D   19247.82071151  .00000151  00000-0  26671-4 0  9995
2 39153  97.9804 345.5157 0015765 308.2700  51.7093 14.80589295343370
ZACUBE
1 39417U 13066B   19247.93682832 +.00000156 +00000-0 +25883-4 0  9996
2 39417 097.5627 257.0419 0060029 136.3690 224.2293 14.81142000312624
TRITON 1
1 39427U 13066M   19247.91638532 +.00000179 +00000-0 +36869-4 0  9994
2 39427 097.6842 220.4929 0112291 275.1752 083.6647 14.67872865309624
GOMX 1
1 39430U 13066Q   19247.79127821  .00000196  00000-0  44451-4 0  9993
2 39430  97.7521 199.2257 0151793   8.4792 351.8921 14.59277968307998
HUMSAT D
1 39433U 13066T   19247.66725233 +.00000509 +00000-0 +54812-4 0  9993
2 39433 097.5472 291.9601 0031762 042.9199 317.4491 14.92238573313526
CUBEBUG 2
1 39440U 13066AA  19247.92241047 +.00000143 +00000-0 +26897-4 0  9992
2 39440 097.6063 241.7569 0079896 189.7531 170.2133 14.75879859310318
FUNCUBE 1
1 39444U 13066AE  19247.82656973  .00000221  00000-0  33341-4 0  9992
2 39444  97.5603 258.9584 0059275 130.3682 230.2729 14.81966336311500
UWE-3
1 39446U 13066AG  19247.92801010 +.00000140 +00000-0 +25129-4 0  9994
2 39446 097.5836 248.8670 0070403 163.5304 196.8218 14.78414662310234
SPROUT
1 39770U 14029E   19247.87116761 +.00000711 +00000-0 +84670-4 0  9990
2 39770 097.8878 350.6729 0008698 180.7172 179.4007 14.87406433286457
UNISAT 6
1 40012U 14033C   19247.87843299 +.00000130 +00000-0 +26870-4 0  9992
2 40012 097.7471 111.0819 0057588 204.3636 155.4849 14.74001491280201
DUCHIFAT 1
1 40021U 14033M   19247.74603672 +.00000443 +00000-0 +50951-4 0  9991
2 40021 097.9225 172.5971 0013469 147.0491 213.1569 14.90670877283171
QB50P1
1 40025U 14033R   19247.72213321 +.00000260 +00000-0 +33608-4 0  9998
2 40025 097.9030 167.2741 0012834 156.5362 203.6443 14.88974313282423
CHUBUSAT 1
1 40300U 14070C   19247.83409830  .00000869  00000-0  40712-4 0  9998
2 40300  97.3219 320.0245 0020497 138.0280 359.0895 15.22153277267908
NUDT-PHONESAT
1 40900U 15049B   19247.76557135  .00002344  00000-0  10261-3 0  9990
2 40900  97.4378 256.3420 0011102 273.2370 158.1735 15.22991400219548
ZDPS 2A
1 40901U 15049C   19247.92858661 +.00001097 +00000-0 +57510-4 0  9990
2 40901 097.4604 252.6265 0012122 295.7799 126.7524 15.17812138219107
ZDPS 2B
1 40902U 15049D   19247.96122034 +.00001241 +00000-0 +64917-4 0  9993
2 40902 097.4555 250.0947 0012013 291.6113 122.6692 15.17655504219086
XW-2A
1 40903U 15049E   19247.77873719  .00002501  00000-0  60495-4 0  9993
2 40903  97.3307 290.9635 0012284 217.7697 207.6788 15.42047317222285
KAITUO 1A
1 40904U 15049F   19247.78875176  .00000699  00000-0  40432-4 0  9999
2 40904  97.4685 248.4683 0013284 301.5525 182.9244 15.15416447218821
OBJECT G
1 40905U 15049G   19247.71624478  .00000653  00000-0  39180-4 0  9998
2 40905  97.4730 245.8682 0014263 296.2234 133.7649 15.14334332218686
XW-2C
1 40906U 15049H   19247.95877741 +.00000518 +00000-0 +30617-4 0  9994
2 40906 097.4687 248.7485 0013435 291.6598 123.1457 15.15735169218856
XW-2D
1 40907U 15049J   19247.87201600  .00000895  00000-0  50080-4 0  9995
2 40907  97.4668 248.3439 0012745 289.1930 187.9077 15.15930078218858
LILACSAT 2
1 40908U 15049K   19247.91655627 +.00000574 +00000-0 +35359-4 0  9999
2 40908 097.4808 247.1383 0014468 295.4387 123.9443 15.13840594218645
XW-2F
1 40910U 15049M   19247.94830885 +.00001072 +00000-0 +56927-4 0  9994
2 40910 097.4635 250.5300 0013162 280.7528 146.6247 15.17393359218883
XW-2B
1 40911U 15049N   19247.84287131  .00000565  00000-0  32987-4 0  9990
2 40911  97.4694 248.9780 0012647 289.9607 190.3349 15.15856694218746
KAITUO 1B
1 40912U 15049P   19247.86965458  .00001308  00000-0  64352-4 0  9995
2 40912  97.4506 254.2151 0013192 259.7796 219.6506 15.19717936219189
TIANWANG 1C (TW-1C)
1 40926U 15051B   19247.90628647 +.00017165 +00000-0 +23834-3 0  9991
2 40926 097.1292 294.0160 0009464 080.7977 044.7533 15.57033364222320
TIANWANG 1B (TW-1B)
1 40927U 15051C   19247.88064356 +.00017247 +00000-0 +25452-3 0  9999
2 40927 097.1315 293.2011 0009884 092.4585 028.0214 15.55371824222161
